Weather History for Novato, CA

Change the Weather History Date:

Tuesday, November 6, 2012

  Actual Average (KAPC) Record (KAPC)
Temperature  
Mean Temperature 61 °F 54 °F  
Max Temperature 78 °F 67 °F 81 °F (2012)
Min Temperature 44 °F 40 °F 35 °F (1998)
Degree Days  
Heating Degree Days 4    
Month to date heating degree days  
Since 1 July heating degree days  
Cooling Degree Days 0    
Month to date cooling degree days  
Year to date cooling degree days  
Growing Degree Days 11 (Base 50)    
Moisture  
Dew Point 54 °F    
Average Humidity 84    
Maximum Humidity 100    
Minimum Humidity 47    
Precipitation  
Precipitation 0.00 in - 1.32 in (1922)
Month to date precipitation  
Year to date precipitation  
Since 1 July precipitation  
Sea Level Pressure  
Sea Level Pressure 30.05 in    
Wind  
Wind Speed 1 mph (SSE)    
Max Wind Speed 6 mph    
Max Gust Speed -    
Visibility 8 miles    
Events Fog    
T = Trace of Precipitation, MM = Missing Value Source: NWS Daily Summary

Daily Weather History Graph

Daily Weather History Graph

Search for Another Location

Airport:

Trip Planner

Search our weather history database for the weather conditions in past years. The results will help you decide how hot, cold, wet, or windy it might be!

Date:

Astronomy

Nov. 06, 2012 Rise Set
Actual Time 6:42 AM PST 5:05 PM PST
Civil Twilight 6:14 AM PST 5:32 PM PST
Nautical Twilight 5:43 AM PST 6:04 PM PST
Astronomical Twilight 5:12 AM PST 6:35 PM PST
Moon 11:48 PM PST (11/6) 12:38 PM PST (11/6)
Length of Visible Light 11h 18m
Length of Day
10h 23m
Waning Gibbous, 52% of the Moon is Illuminated
Nov 6
Waning Gibbous
Nov 6
Last Quarter
Nov 13
New
Nov 20
First Quarter
Nov 28
Full

Hourly Weather History & Observations

Time (PST) Temp. Dew Point Humidity Pressure Visibility Wind Dir Wind Speed Gust Speed Precip Events Conditions
12:15 AM 50.0 °F 50.0 °F 100% 30.07 in 0.5 mi Calm Calm - N/A Fog Fog
12:35 AM 50.0 °F 50.0 °F 100% 30.07 in 0.8 mi Calm Calm - N/A   Mist
12:55 AM 50.0 °F 50.0 °F 100% 30.07 in 9.0 mi Calm Calm - N/A   Clear
1:15 AM 51.8 °F 51.8 °F 100% 30.07 in 10.0 mi Calm Calm - N/A   Clear
1:35 AM 51.8 °F 51.8 °F 100% 30.07 in 10.0 mi Calm Calm - N/A   Clear
1:55 AM 48.2 °F 48.2 °F 100% 30.07 in 9.0 mi Calm Calm - N/A   Clear
2:15 AM 48.2 °F 48.2 °F 100% 30.07 in 1.8 mi Calm Calm - N/A   Clear
2:35 AM 50.0 °F 50.0 °F 100% 30.07 in 10.0 mi Calm Calm - N/A   Clear
2:55 AM 50.0 °F 50.0 °F 100% 30.07 in 10.0 mi Calm Calm - N/A   Clear
3:15 AM 51.8 °F 51.8 °F 100% 30.07 in 10.0 mi Calm Calm - N/A   Clear
3:35 AM 46.4 °F 46.4 °F 100% 30.07 in 0.2 mi Calm Calm - N/A Fog Fog
3:55 AM 48.2 °F 48.2 °F 100% 30.07 in 0.2 mi Calm Calm - N/A Fog Fog
4:15 AM 46.4 °F 46.4 °F 100% 30.07 in 0.5 mi Calm Calm - N/A Fog Fog
4:35 AM 48.2 °F 48.2 °F 100% 30.07 in 10.0 mi Calm Calm - N/A   Clear
4:55 AM 48.2 °F 48.2 °F 100% 30.08 in 0.2 mi Calm Calm - N/A Fog Fog
5:15 AM 48.2 °F 48.2 °F 100% 30.08 in 1.2 mi Calm Calm - N/A   Clear
5:35 AM 50.0 °F 50.0 °F 100% 30.08 in 10.0 mi Calm Calm - N/A   Clear
5:55 AM 48.2 °F 48.2 °F 100% 30.08 in 10.0 mi South 3.5 mph - N/A   Clear
6:15 AM 48.2 °F 48.2 °F 100% 30.08 in 10.0 mi South 3.5 mph - N/A   Clear
6:35 AM 44.6 °F 44.6 °F 100% 30.08 in 0.2 mi Calm Calm - N/A Fog Fog
6:55 AM 46.4 °F 46.4 °F 100% 30.09 in 0.8 mi Calm Calm - N/A   Mist
7:15 AM 46.4 °F 46.4 °F 100% 30.09 in 0.5 mi Calm Calm - N/A Fog Fog
7:35 AM 50.0 °F 50.0 °F 100% 30.09 in 10.0 mi Calm Calm - N/A   Clear
7:55 AM 53.6 °F 53.6 °F 100% 30.10 in 10.0 mi Calm Calm - N/A   Clear
8:15 AM 57.2 °F 57.2 °F 100% 30.10 in 10.0 mi Calm Calm - N/A   Clear
8:35 AM 59.0 °F 59.0 °F 100% 30.10 in 10.0 mi SSE 3.5 mph - N/A   Clear
8:55 AM 62.6 °F 59.0 °F 88% 30.10 in 10.0 mi Calm Calm - N/A   Clear
9:15 AM 64.4 °F 59.0 °F 83% 30.10 in 10.0 mi SSE 3.5 mph - N/A   Clear
9:35 AM 66.2 °F 59.0 °F 78% 30.09 in 10.0 mi SSE 3.5 mph - N/A   Clear
9:55 AM 68.0 °F 59.0 °F 73% 30.09 in 10.0 mi SSW 3.5 mph - N/A   Clear
10:15 AM 69.8 °F 59.0 °F 68% 30.09 in 10.0 mi South 3.5 mph - N/A   Clear
10:35 AM 69.8 °F 55.4 °F 60% 30.09 in 10.0 mi SE 3.5 mph - N/A   Clear
10:55 AM 71.6 °F 57.2 °F 60% 30.09 in 10.0 mi SE 3.5 mph - N/A   Clear
11:15 AM 71.6 °F 57.2 °F 60% 30.08 in 10.0 mi SE 5.8 mph - N/A   Clear
11:35 AM 73.4 °F 57.2 °F 57% 30.07 in 10.0 mi SE 4.6 mph - N/A   Clear
11:55 AM 73.4 °F 57.2 °F 57% 30.06 in 10.0 mi SSE 5.8 mph - N/A   Clear
12:15 PM 73.4 °F 57.2 °F 57% 30.05 in 10.0 mi SE 4.6 mph - N/A   Clear
12:35 PM 75.2 °F 57.2 °F 53% 30.05 in 10.0 mi SE 3.5 mph - N/A   Clear
12:55 PM 75.2 °F 57.2 °F 53% 30.04 in 10.0 mi SE 5.8 mph - N/A   Clear
1:15 PM 75.2 °F 57.2 °F 53% 30.04 in 10.0 mi ESE 4.6 mph - N/A   Clear
1:35 PM 77.0 °F 57.2 °F 50% 30.03 in 10.0 mi ESE 4.6 mph - N/A   Clear
1:55 PM 77.0 °F 57.2 °F 50% 30.02 in 10.0 mi ESE 3.5 mph - N/A   Clear
2:15 PM 77.0 °F 57.2 °F 50% 30.02 in 10.0 mi Calm Calm - N/A   Clear
2:35 PM 77.0 °F 57.2 °F 50% 30.02 in 10.0 mi SE 3.5 mph - N/A   Clear
2:55 PM 77.0 °F 57.2 °F 50% 30.02 in 10.0 mi SE 3.5 mph - N/A   Clear
3:15 PM 78.8 °F 57.2 °F 47% 30.02 in 10.0 mi Calm Calm - N/A   Clear
3:35 PM 78.8 °F 57.2 °F 47% 30.01 in 10.0 mi SSE 3.5 mph - N/A   Clear
3:55 PM 77.0 °F 57.2 °F 50% 30.01 in 10.0 mi SSE 3.5 mph - N/A   Clear
4:15 PM 77.0 °F 57.2 °F 50% 30.01 in 10.0 mi South 3.5 mph - N/A   Clear
4:35 PM 75.2 °F 57.2 °F 53% 30.00 in 10.0 mi Calm Calm - N/A   Clear
4:55 PM 71.6 °F 57.2 °F 60% 30.00 in 10.0 mi Calm Calm - N/A   Clear
5:15 PM 69.8 °F 57.2 °F 64% 30.00 in 10.0 mi Calm Calm - N/A   Clear
5:35 PM 68.0 °F 59.0 °F 73% 30.00 in 10.0 mi South 3.5 mph - N/A   Clear
5:55 PM 64.4 °F 59.0 °F 83% 30.00 in 10.0 mi Calm Calm - N/A   Clear
6:15 PM 60.8 °F 57.2 °F 88% 30.01 in 10.0 mi Calm Calm - N/A   Clear
6:35 PM 64.4 °F 57.2 °F 77% 30.01 in 10.0 mi Calm Calm - N/A   Clear
6:55 PM 62.6 °F 59.0 °F 88% 30.01 in 10.0 mi Calm Calm - N/A   Clear
7:15 PM 57.2 °F 57.2 °F 100% 30.02 in 10.0 mi North 3.5 mph - N/A   Clear
7:35 PM 59.0 °F 57.2 °F 94% 30.02 in 10.0 mi Calm Calm - N/A   Clear
7:55 PM 57.2 °F 57.2 °F 100% 30.02 in 10.0 mi Calm Calm - N/A   Clear
8:15 PM 57.2 °F 57.2 °F 100% 30.03 in 10.0 mi Calm Calm - N/A   Clear
8:35 PM 55.4 °F 55.4 °F 100% 30.03 in 10.0 mi NNW 3.5 mph - N/A   Clear
8:55 PM 55.4 °F 55.4 °F 100% 30.03 in 10.0 mi Calm Calm - N/A   Clear
9:15 PM 55.4 °F 55.4 °F 100% 30.03 in 10.0 mi Calm Calm - N/A   Clear
9:35 PM 55.4 °F 55.4 °F 100% 30.04 in 10.0 mi Calm Calm - N/A   Clear
9:55 PM 55.4 °F 55.4 °F 100% 30.04 in 10.0 mi Calm Calm - N/A   Clear
10:15 PM 55.4 °F 55.4 °F 100% 30.04 in 10.0 mi Calm Calm - N/A   Clear
10:35 PM 53.6 °F 53.6 °F 100% 30.04 in 10.0 mi Calm Calm - N/A   Clear
10:55 PM 51.8 °F 51.8 °F 100% 30.04 in 7.0 mi Calm Calm - N/A   Clear
11:15 PM 50.0 °F 50.0 °F 100% 30.04 in 5.0 mi Calm Calm - N/A   Clear
11:35 PM 50.0 °F 50.0 °F 100% 30.04 in 8.0 mi Calm Calm - N/A   Clear
11:55 PM 50.0 °F 50.0 °F 100% 30.04 in 3.0 mi North 4.6 mph - N/A   Clear